Location: Nag� el Ma?a??a
(24.0667°N, 32.8833°E)
Time: 16:07:33
(UTC+00:00)

Cosmos 1707 Rocket - Pass Details

Date: 25 September 2021
Orbit: 604 x 632 km, 82.5° (Epoch: 16 October)

Event Time Altitude Azimuth Distance (km) Brightness Sun altitude
Rises 02:39:44 0° 190° (S) 2,893 6.8 -14.2°
Reaches altitude 10° 02:41:58 10° 192° (SSW) 1,993 6.0 -13.6°
Maximum altitude 02:46:21 68° 275° (W) 678 3.5 -12.6°
Drops below altitude 10° 02:50:48 10° 359° (N) 2,011 6.2 -11.6°
Sets 02:53:03 0° 2° (N) 2,921 7.1 -11.1°
